TimeEST,TemperatureF,Dew PointF,Humidity,Sea Level PressureIn,VisibilityMPH,Wind Direction,Wind SpeedMPH,Gust SpeedMPH,PrecipitationIn,Events,Conditions,WindDirDegrees,DateUTC
12:15 AM,44.6,42.8,93,30.02,2.0,Calm,Calm,-,N/A,,Mostly Cloudy,0,2013-01-12 05:15:00
12:35 AM,44.6,44.6,100,30.02,10.0,Calm,Calm,-,N/A,,Mostly Cloudy,0,2013-01-12 05:35:00
12:55 AM,44.6,44.6,100,30.02,10.0,Calm,Calm,-,N/A,,Scattered Clouds,0,2013-01-12 05:55:00
1:15 AM,44.6,42.8,93,30.02,2.0,Calm,Calm,-,N/A,,Mostly Cloudy,0,2013-01-12 06:15:00
1:35 AM,44.6,42.8,93,30.02,0.8,Calm,Calm,-,N/A,,Mostly Cloudy,0,2013-01-12 06:35:00
1:55 AM,44.6,42.8,93,30.02,0.5,Calm,Calm,-,N/A,Fog,Fog,0,2013-01-12 06:55:00
2:35 AM,42.8,42.8,100,30.03,0.5,Calm,Calm,-,N/A,Fog,Fog,0,2013-01-12 07:35:00
2:55 AM,42.8,42.8,100,30.03,0.8,Calm,Calm,-,N/A,,Mist,0,2013-01-12 07:55:00
3:15 AM,42.8,42.8,100,30.03,0.5,Calm,Calm,-,N/A,Fog,Fog,0,2013-01-12 08:15:00
3:35 AM,42.8,42.8,100,30.04,0.5,Calm,Calm,-,N/A,Fog,Fog,0,2013-01-12 08:35:00
3:55 AM,42.8,42.8,100,30.04,0.5,Calm,Calm,-,N/A,Fog,Fog,0,2013-01-12 08:55:00
4:15 AM,42.8,41.0,93,30.03,0.5,Calm,Calm,-,N/A,Fog,Fog,0,2013-01-12 09:15:00
4:35 AM,42.8,42.8,100,30.03,1.0,Calm,Calm,-,N/A,,Overcast,0,2013-01-12 09:35:00
4:55 AM,44.6,42.8,93,30.03,1.0,Calm,Calm,-,N/A,,Overcast,0,2013-01-12 09:55:00
5:15 AM,42.8,42.8,100,30.04,0.5,Calm,Calm,-,N/A,Fog,Fog,0,2013-01-12 10:15:00
5:35 AM,42.8,42.8,100,30.04,1.0,Calm,Calm,-,N/A,,Overcast,0,2013-01-12 10:35:00
5:55 AM,42.8,42.8,100,30.04,2.5,Calm,Calm,-,N/A,,Mostly Cloudy,0,2013-01-12 10:55:00
6:15 AM,42.8,41.0,93,30.05,0.5,Calm,Calm,-,N/A,Fog,Fog,0,2013-01-12 11:15:00
6:35 AM,41.0,41.0,100,30.05,0.8,Calm,Calm,-,N/A,,Overcast,0,2013-01-12 11:35:00
6:55 AM,41.0,39.2,93,30.06,-9999.0,Calm,Calm,-,N/A,,Unknown,0,2013-01-12 11:55:00
7:15 AM,41.0,41.0,100,30.07,3.0,Calm,Calm,-,N/A,,Scattered Clouds,0,2013-01-12 12:15:00
7:35 AM,42.8,41.0,93,30.07,7.0,Calm,Calm,-,N/A,,Mostly Cloudy,0,2013-01-12 12:35:00
7:55 AM,41.0,41.0,100,30.08,7.0,Calm,Calm,-,N/A,,Mostly Cloudy,0,2013-01-12 12:55:00
8:15 AM,42.8,42.8,100,30.09,5.0,Calm,Calm,-,N/A,,Mostly Cloudy,0,2013-01-12 13:15:00
8:35 AM,42.8,42.8,100,30.10,7.0,Calm,Calm,-,N/A,,Scattered Clouds,0,2013-01-12 13:35:00
9:15 AM,48.2,46.4,93,30.10,10.0,Calm,Calm,-,N/A,,Scattered Clouds,0,2013-01-12 14:15:00
9:35 AM,50.0,50.0,100,30.10,10.0,Calm,Calm,-,N/A,,Clear,0,2013-01-12 14:35:00
9:55 AM,50.0,50.0,100,30.10,10.0,Calm,Calm,-,N/A,,Scattered Clouds,0,2013-01-12 14:55:00
10:15 AM,51.8,51.8,100,30.10,10.0,Calm,Calm,-,N/A,,Scattered Clouds,0,2013-01-12 15:15:00
10:35 AM,53.6,51.8,94,30.10,10.0,Calm,Calm,-,N/A,,Clear,0,2013-01-12 15:35:00
10:55 AM,53.6,53.6,100,30.10,10.0,Calm,Calm,-,N/A,,Scattered Clouds,0,2013-01-12 15:55:00
11:15 AM,57.2,55.4,94,30.09,10.0,Calm,Calm,-,N/A,,Scattered Clouds,0,2013-01-12 16:15:00
11:35 AM,60.8,59.0,94,30.08,10.0,Calm,Calm,-,N/A,,Clear,0,2013-01-12 16:35:00
11:55 AM,60.8,59.0,94,30.07,10.0,WSW,3.5,-,N/A,,Clear,240,2013-01-12 16:55:00
12:15 PM,60.8,59.0,94,30.06,10.0,SW,4.6,-,N/A,,Clear,220,2013-01-12 17:15:00
12:35 PM,64.4,60.8,88,30.06,10.0,WSW,3.5,-,N/A,,Clear,240,2013-01-12 17:35:00
1:15 PM,64.4,59.0,83,30.04,10.0,South,4.6,-,N/A,,Clear,170,2013-01-12 18:15:00
1:35 PM,64.4,59.0,83,30.05,10.0,SSW,5.8,-,N/A,,Clear,210,2013-01-12 18:35:00
1:55 PM,64.4,59.0,83,30.05,10.0,SSW,3.5,-,N/A,,Mostly Cloudy,200,2013-01-12 18:55:00
2:15 PM,64.4,59.0,83,30.05,10.0,South,4.6,-,N/A,,Mostly Cloudy,190,2013-01-12 19:15:00
2:35 PM,64.4,59.0,83,30.05,10.0,Calm,Calm,-,N/A,,Scattered Clouds,0,2013-01-12 19:35:00
2:55 PM,64.4,59.0,83,30.06,10.0,Calm,Calm,-,N/A,,Clear,0,2013-01-12 19:55:00
3:15 PM,64.4,59.0,83,30.04,10.0,Calm,Calm,-,N/A,,Scattered Clouds,0,2013-01-12 20:15:00
3:35 PM,66.2,59.0,78,30.04,10.0,Calm,Calm,-,N/A,,Scattered Clouds,0,2013-01-12 20:35:00
3:55 PM,64.4,59.0,83,30.04,10.0,SE,3.5,-,N/A,,Clear,140,2013-01-12 20:55:00
4:15 PM,64.4,59.0,83,30.04,7.0,Calm,Calm,-,N/A,Rain,Light Rain,0,2013-01-12 21:15:00
4:35 PM,62.6,59.0,88,30.04,7.0,Calm,Calm,-,N/A,Rain,Light Rain,0,2013-01-12 21:35:00
4:55 PM,62.6,59.0,88,30.03,7.0,East,3.5,-,N/A,,Overcast,100,2013-01-12 21:55:00
5:15 PM,60.8,59.0,94,30.02,10.0,East,3.5,-,N/A,,Scattered Clouds,90,2013-01-12 22:15:00
5:35 PM,62.6,59.0,88,30.02,10.0,Calm,Calm,-,N/A,,Mostly Cloudy,0,2013-01-12 22:35:00
5:55 PM,60.8,59.0,94,30.01,10.0,Calm,Calm,-,N/A,,Overcast,0,2013-01-12 22:55:00
6:15 PM,60.8,57.2,88,30.00,7.0,Calm,Calm,-,N/A,,Mostly Cloudy,0,2013-01-12 23:15:00
6:35 PM,60.8,59.0,94,30.00,7.0,ESE,4.6,-,N/A,,Mostly Cloudy,120,2013-01-12 23:35:00
6:55 PM,60.8,59.0,94,29.99,10.0,ESE,3.5,-,N/A,,Mostly Cloudy,110,2013-01-12 23:55:00
7:15 PM,60.8,57.2,88,30.00,10.0,Calm,Calm,-,N/A,Rain,Light Rain,0,2013-01-13 00:15:00
7:35 PM,59.0,59.0,100,30.00,5.0,Calm,Calm,-,N/A,,Overcast,0,2013-01-13 00:35:00
7:55 PM,59.0,57.2,94,30.00,7.0,Calm,Calm,-,N/A,,Overcast,0,2013-01-13 00:55:00
8:15 PM,59.0,55.4,88,29.99,4.0,Calm,Calm,-,N/A,,Mostly Cloudy,0,2013-01-13 01:15:00
8:35 PM,57.2,55.4,94,29.98,0.8,SSE,3.5,-,N/A,,Mostly Cloudy,150,2013-01-13 01:35:00
8:55 PM,60.8,59.0,94,29.98,4.0,Calm,Calm,-,N/A,Rain,Light Rain,0,2013-01-13 01:55:00
9:15 PM,60.8,59.0,94,29.97,10.0,East,3.5,-,N/A,,Overcast,100,2013-01-13 02:15:00
9:35 PM,59.0,57.2,94,29.96,7.0,Calm,Calm,-,N/A,,Mostly Cloudy,0,2013-01-13 02:35:00
9:55 PM,59.0,57.2,94,29.94,3.0,East,3.5,-,N/A,,Scattered Clouds,100,2013-01-13 02:55:00
10:15 PM,60.8,59.0,94,29.94,10.0,Calm,Calm,-,N/A,,Mostly Cloudy,0,2013-01-13 03:15:00
10:35 PM,59.0,57.2,94,29.94,10.0,Calm,Calm,-,N/A,,Scattered Clouds,0,2013-01-13 03:35:00
10:55 PM,55.4,53.6,94,29.94,7.0,Calm,Calm,-,N/A,,Clear,0,2013-01-13 03:55:00
11:15 PM,55.4,53.6,94,29.94,7.0,Calm,Calm,-,N/A,,Clear,0,2013-01-13 04:15:00
11:35 PM,57.2,55.4,94,29.94,10.0,Calm,Calm,-,N/A,,Scattered Clouds,0,2013-01-13 04:35:00
11:55 PM,59.0,55.4,88,29.94,10.0,Calm,Calm,-,N/A,,Scattered Clouds,0,2013-01-13 04:55:00